Location: Franzen
(48.6167°N, 15.3833°E)
Time: 18:19:59
(UTC+00:00)

A-11 Canister half - Pass Details

Date: 03 August 2021
Orbit: 1515 x 1685 km, 47.2° (Epoch: 19 September)

Event Time Altitude Azimuth Distance (km) Brightness Sun altitude
Rises 14:01:48 0° 202° (SSW) 4,735 12.1 42.5°
Reaches altitude 10° 14:05:17 10° 192° (SSW) 3,779 11.6 42.0°
Maximum altitude 14:13:17 31° 135° (SE) 2,562 10.3 40.7°
Drops below altitude 10° 14:21:31 10° 79° (ENE) 3,903 10.8 39.5°
Sets 14:25:10 0° 70° (ENE) 4,912 11.2 38.9°
